Williston, VT

1:11 AM EST on January 22, 2017 (GMT -0500)
Burlington International

Weather History for KBTV - September, 2013

Change the Weather History Date:

Friday, September 27, 2013

  Actual Average Record
Temperature  
Mean Temperature 57 °F 56 °F  
Max Temperature 66 °F 65 °F 83 °F (1920)
Min Temperature 48 °F 46 °F 27 °F (1947)
Degree Days  
Heating Degree Days 8 10  
Month to date heating degree days 182 143  
Since 1 July heating degree days 198 185  
Cooling Degree Days 0 0  
Month to date cooling degree days 58 41  
Year to date cooling degree days 658 489  
Growing Degree Days 8 (Base 50)    
Moisture  
Dew Point 49 °F    
Average Humidity 74    
Maximum Humidity 96    
Minimum Humidity 52    
Precipitation  
Precipitation 0.00 in 0.13 in 2.43 in (1942)
Month to date precipitation 4.74 3.26  
Year to date precipitation 37.43 27.33  
Snow  
Snow 0.00 in 0.00 in 0.00 in (2002)
Month to date snowfall 0.0 0.0  
Since 1 July snowfall 0.0 0.0  
Since 1 September snowfall 0.0 0.0  
Snow Depth 0.00 in    
Sea Level Pressure  
Sea Level Pressure 30.25 in    
Wind  
Wind Speed 2 mph (WNW)    
Max Wind Speed 12 mph    
Max Gust Speed 16 mph    
Visibility 10 miles    
Events      
T = Trace of Precipitation, MM = Missing Value Source: NWS Daily Summary

Daily Weather History Graph

Daily Weather History Graph

Search for Another Location

Airport or City:

Trip Planner

Search our weather history database for the weather conditions in past years. The results will help you decide how hot, cold, wet, or windy it might be!

Date:

Astronomy

Sep. 27, 2013 Rise Set
Actual Time 6:45 AM EDT 6:40 PM EDT
Civil Twilight 6:16 AM EDT 7:09 PM EDT
Nautical Twilight 5:43 AM EDT 7:43 PM EDT
Astronomical Twilight 5:08 AM EDT 8:17 PM EDT
Moon No Moon Rise 2:29 PM EDT (9/27)
Length of Visible Light 12h 52m
Length of Day
11h 54m
Last Quarter, 45% of the Moon is Illuminated
Sep 27
Last Quarter
Oct 4
New
Oct 11
First Quarter
Oct 18
Full
Oct 26
Last Quarter

Hourly Weather History & Observations

Time (EDT) Temp. Dew Point Humidity Pressure Visibility Wind Dir Wind Speed Gust Speed Precip Events Conditions
12:54 AM 55.9 °F 48.9 °F 77% 30.19 in 10.0 mi Calm Calm - N/A   Overcast
1:54 AM 55.9 °F 50.0 °F 80% 30.18 in 10.0 mi Calm Calm - N/A   Overcast
2:16 AM 53.6 °F 48.2 °F 82% 30.18 in 10.0 mi NNW 4.6 mph - N/A   Mostly Cloudy
2:54 AM 54.0 °F 51.1 °F 90% 30.19 in 10.0 mi Calm Calm - N/A   Overcast
3:54 AM 54.0 °F 50.0 °F 86% 30.19 in 10.0 mi Calm Calm - N/A   Overcast
4:54 AM 54.0 °F 50.0 °F 86% 30.20 in 10.0 mi Calm Calm - N/A   Overcast
5:54 AM 54.0 °F 50.0 °F 86% 30.22 in 10.0 mi Calm Calm - N/A   Overcast
6:54 AM 54.0 °F 50.0 °F 86% 30.24 in 10.0 mi Calm Calm - N/A   Overcast
7:54 AM 55.0 °F 50.0 °F 83% 30.25 in 10.0 mi Calm Calm - N/A   Overcast
8:54 AM 57.0 °F 50.0 °F 77% 30.27 in 10.0 mi Calm Calm - N/A   Mostly Cloudy
9:54 AM 57.9 °F 50.0 °F 75% 30.28 in 10.0 mi Calm Calm - N/A   Mostly Cloudy
10:18 AM 57.2 °F 50.0 °F 77% 30.28 in 10.0 mi Calm Calm - N/A   Mostly Cloudy
10:54 AM 59.0 °F 48.0 °F 67% 30.29 in 10.0 mi North 4.6 mph - N/A   Mostly Cloudy
11:29 AM 60.8 °F 48.2 °F 63% 30.28 in 10.0 mi Variable 3.5 mph - N/A   Mostly Cloudy
11:54 AM 61.0 °F 48.9 °F 64% 30.29 in 10.0 mi West 4.6 mph - N/A   Mostly Cloudy
12:30 PM 60.8 °F 48.2 °F 63% 30.28 in 10.0 mi West 3.5 mph - N/A   Mostly Cloudy
12:54 PM 62.1 °F 48.9 °F 62% 30.28 in 10.0 mi Calm Calm - N/A   Mostly Cloudy
1:54 PM 64.9 °F 48.9 °F 56% 30.26 in 10.0 mi NW 6.9 mph - N/A   Scattered Clouds
2:54 PM 66.0 °F 48.9 °F 54% 30.25 in 10.0 mi WNW 6.9 mph - N/A   Mostly Cloudy
3:54 PM 64.9 °F 50.0 °F 58% 30.25 in 10.0 mi Variable 6.9 mph - N/A   Mostly Cloudy
4:54 PM 64.9 °F 50.0 °F 58% 30.26 in 10.0 mi West 6.9 mph - N/A   Scattered Clouds
5:54 PM 64.0 °F 48.9 °F 58% 30.26 in 10.0 mi WNW 4.6 mph - N/A   Partly Cloudy
6:54 PM 59.0 °F 50.0 °F 72% 30.27 in 10.0 mi Calm Calm - N/A   Scattered Clouds
7:54 PM 55.9 °F 50.0 °F 80% 30.28 in 10.0 mi South 3.5 mph - N/A   Partly Cloudy
8:54 PM 54.0 °F 50.0 °F 86% 30.29 in 10.0 mi Calm Calm - N/A   Clear
9:54 PM 52.0 °F 50.0 °F 93% 30.30 in 10.0 mi Calm Calm - N/A   Clear
10:54 PM 50.0 °F 48.0 °F 93% 30.31 in 10.0 mi SE 3.5 mph - N/A   Clear
11:54 PM 50.0 °F 48.0 °F 93% 30.31 in 10.0 mi Calm Calm - N/A   Clear